Tracking 17925 objects as of 20-February-2017
HD Live streaming from Space Station
objects crossing your sky now

SL-16 DEB

Track SL-16 DEB now!
10-day predictions


NORAD ID: 22336
Int'l Code: 1992-093Z
Perigee: 840.7 km
Apogee: 1,013.2 km
Inclination: 71.1 °
Period: 103.4 minutes
Semi major axis: 7297 km
RCS: 0.2247 m2 (medium)
Launch date: December 25, 1992
Source: Commonwealth of Independent States (former USSR) (CIS)
Launch site: TYURATAM MISSILE AND SPACE COMPLEX (TTMTR)

Note: This is SATELLITE DEBRIS
Your satellite tracking list
Your tracking list is empty





NASA's NSSDC Master Catalog

Two Line Element Set (TLE):
1 22336U 92093Z   17049.91258813 +.00000189 +00000-0 +17060-3 0  9992
2 22336 071.1296 235.6232 0118182 043.8593 063.1288 13.92524531223167
Source of the keplerian elements: AFSPC